Epoch 2007 May 20.0 TT = JDT 2454240.5 T 2007 May 27.76954 TT MPC q 5.2090303 (2000.0) P Q z +0.0015445 Peri. 309.09887 -0.25472127 -0.89091250 +/-0.0000088 Node 148.43460 +0.94670388 -0.15046924 e 0.9919545 Incl. 45.91614 -0.19715184 +0.42852529
m1 = 7.5 + 5 logΔ + 10.0 log r